Flag for Canada Weather past 2 weeks in Qikiqtarjuaq, Nunavut, Canada

Now
19 °F

Sunny.


Feels Like: 4 °F
Forecast: N/A
Wind: 17 mph from Southwest

Location: Broughton Island Airport

Current Time: Apr 26, 2015 at 6:06:11 PM

Latest Report: Apr 26, 2015 at 5:00 PM


Visibility: 9 mi

Pressure: 30.33 "Hg

Humidity: 73%

Dew point: 12 °F

Location of QikiqtarjuaqLocation

Historic Weather in Qikiqtarjuaq — Graph

°F

Qikiqtarjuaq temperature yesterday

Maximum temperature yesterday: 25 °F (at 1:00 PM)
Minimum temperature yesterday: 0 °F (at 1:57 AM)
Average temperature yesterday: 12 °F

Past Weeks' High & Low Weather Summary

 TemperatureHumidityPressure
High25 °F (Apr 25, 1:00 PM)92% (Apr 21, 7:00 PM)30.88 "Hg (Apr 21, 7:00 PM)
Low-20 °F (Apr 15, 12:00 AM)41% (Apr 25, 9:00 AM)29.29 "Hg (Apr 13, 9:00 AM)
Average-2 °F75%29.98 "Hg
* Reported Apr 11 4:00 PM — Apr 26 4:00 PM, Qikiqtarjuaq, Weather by CustomWeather, © 2015

Note: Actual official high and low records may vary slightly from our data, if they occured in-between our weather recording intervals... More about our weather records

Advertising

Qikiqtarjuaq weather history for previous 24 hours

 ConditionsComfort  
Time TempWeatherWind HumidityBarometerVisibility
4:00 PM
Sun, Apr 26
19 °FSunny.14 mph73%30.34 "Hg9 mi
3:00 PM21 °FSunny.13 mph63%30.35 "Hg9 mi
2:00 PM21 °FSunny.16 mph68%30.35 "Hg9 mi
1:00 PM19 °FSunny.15 mph68%30.37 "Hg15 mi
12:00 PM16 °FSunny.13 mph73%30.38 "Hg15 mi
11:00 AM14 °FSunny.13 mph79%30.39 "Hg15 mi
10:00 AM12 °FSunny.13 mph79%30.40 "Hg15 mi
9:00 AM12 °FSunny.13 mph73%30.41 "Hg15 mi
8:00 AM9 °FSunny.16 mph78%30.41 "Hg15 mi
7:00 AM9 °FSunny.15 mph78%30.42 "Hg15 mi
6:00 AM9 °FSunny.14 mph78%30.43 "Hg9 mi
5:00 AM7 °FSunny.10 mph85%30.44 "Hg9 mi
4:00 AM3 °FClear.10 mph85%30.44 "Hg9 mi
3:00 AM5 °FClear.15 mph92%30.45 "Hg9 mi
2:00 AM1 °FClear.8 mph92%30.45 "Hg9 mi
1:00 AM5 °FClear.7 mph92%30.45 "Hg9 mi
12:00 AM9 °FClear.9 mph85%30.46 "Hg9 mi
11:00 PM
Sat, Apr 25
10 °FClear.8 mph85%30.47 "Hg9 mi
10:00 PM10 °FClear.9 mph85%30.48 "Hg9 mi
9:00 PM12 °FPassing clouds.9 mph85%30.48 "Hg9 mi
8:00 PM14 °FPassing clouds.18 mph79%30.46 "Hg9 mi
7:00 PM16 °FScattered clouds.13 mph79%30.47 "Hg9 mi
6:00 PM18 °FSunny.16 mph73%30.46 "Hg9 mi
Weather by CustomWeather, © 2015

See weather overviewHow to use our weather pages